This is the latest recevied weather packets stored in our database for station/object IT9GFD-13. If no packets are shown the sender has not sent any weather packets the latest 10 day(s).
| Time | Temp. | Humidity | Pressure | Rain* | Wind** | Luminosity | Snow |
|---|---|---|---|---|---|---|---|
| 1777524036 | 16.67° C | 68% | 1016.8 hPa | 0 mm | - | - | - |
| 1777520416 | 17.22° C | 65% | 1016.6 hPa | 0 mm | - | - | - |
| 1777518636 | 17.22° C | 66% | 1016.7 hPa | 0 mm | - | - | - |
| 1777516216 | 17.22° C | 69% | 1016.9 hPa | 0 mm | - | - | - |
| 1777515616 | 17.22° C | 70% | 1016.6 hPa | 0 mm | - | - | - |
| 1777496116 | 17.78° C | 73% | 1017.9 hPa | 0 mm | - | - | - |
| 1777490118 | 17.78° C | 73% | 1017.6 hPa | 0 mm | - | - | - |
| 1777480216 | 20° C | 64% | 1016.4 hPa | 0 mm | - | - | - |
| 1777474816 | 21.11° C | 45% | 1016 hPa | 0 mm | - | - | - |
| 1777473016 | 21.67° C | 50% | 1015.6 hPa | 0 mm | - | - | - |
| 1777471816 | 21.67° C | 45% | 1016 hPa | 0 mm | - | - | - |
| 1777459216 | 20.56° C | 61% | 1017.9 hPa | 0 mm | - | - | - |
| 1777454416 | 21.11° C | 58% | 1017.7 hPa | 0 mm | - | - | - |
| 1777453236 | 20.56° C | 56% | 1017.7 hPa | 0 mm | - | - | - |
| 1777452018 | 20.56° C | 51% | 1017.6 hPa | 0 mm | - | - | - |
| 1777451417 | 21.11° C | 51% | 1017.5 hPa | 0 mm | - | - | - |
| 1777447817 | 21.11° C | 53% | 1016.7 hPa | 0 mm | - | - | - |
| 1777447218 | 21.11° C | 51% | 1016.8 hPa | 0 mm | - | - | - |
| 1777444238 | 20° C | 55% | 1017.8 hPa | 0 mm | - | - | - |
| 1777443617 | 20° C | 56% | 1017.7 hPa | 0 mm | - | - | - |
| 1777438237 | 16.11° C | 66% | 1017.5 hPa | 0 mm | - | - | - |
| 1777436417 | 14.44° C | 66% | 1017.2 hPa | 0 mm | - | - | - |
| 1777432817 | 14.44° C | 64% | 1017.1 hPa | 0 mm | - | - | - |
| 1777431037 | 15° C | 61% | 1017.3 hPa | 0 mm | - | - | - |
| 1777425617 | 14.44° C | 58% | 1017.5 hPa | 0 mm | - | - | - |
* Rain latest hour (hover to see other rain measurements)
** Current wind speed in m/s (hover to see current wind gust speed)